AO-07 1 07530U 74089B 19311.19625188 -.00000029 00000-0 10067-3 0 9997 2 07530 101.7655 277.5029 0012515 73.8409 356.8900 12.53640619 58257 UO-11 1 14781U 84021B 19311.51727349 .00000081 00000-0 16062-4 0 9997 2 14781 97.6029 329.4641 0007794 204.7140 155.3702 14.83118124919780 LO-19 1 20442U 90005G 19311.06861037 .00000014 00000-0 21335-4 0 9995 2 20442 98.6629 252.9140 0012898 92.3878 267.8783 14.32937174556628 HUBBLE 1 20580U 90037B 19311.18684250 .00000473 00000-0 17843-4 0 9994 2 20580 28.4706 356.2642 0002552 203.1438 197.4940 15.09294430422286 MET-2/21 1 22782U 93055A 19310.76192872 .00000058 00000-0 39139-4 0 9991 2 22782 82.5519 51.1132 0023230 140.3941 23.4994 13.83823802322374 AO-27 1 22825U 93061C 19310.97205818 -.00000002 00000-0 17282-4 0 9999 2 22825 98.9149 302.9116 0007639 312.8267 47.2272 14.30070322362149 IO-26 1 22826U 93061D 19311.22058524 .00000006 00000-0 20157-4 0 9997 2 22826 98.9090 303.1398 0008022 299.1327 60.9051 14.30404669362389 FO-29 1 24278U 96046B 19310.63487393 -.00000018 00000-0 20314-4 0 9999 2 24278 98.5597 85.0685 0349556 234.5564 122.2478 13.53094526146860 NOAA-15 1 25338U 98030A 19311.57978682 .00000032 00000-0 31989-4 0 9997 2 25338 98.7385 332.5340 0010336 185.0915 175.0161 14.25938062117465 GO-32 1 25397U 98043D 19310.46216367 -.00000005 00000-0 17182-4 0 9998 2 25397 98.7016 248.9712 0001585 33.0414 327.0863 14.23673703107908 ISS 1 25544U 98067A 19311.65034873 .00000782 00000-0 21538-4 0 9991 2 25544 51.6451 9.9487 0005806 239.8014 220.3094 15.50259288197515 NO-44 1 26931U 01043C 19311.42607578 -.00000011 00000-0 27517-4 0 9992 2 26931 67.0525 357.9347 0007478 266.3036 93.7210 14.30557746945246 SO-50 1 27607U 02058C 19311.53344879 -.00000012 00000-0 19187-4 0 9999 2 27607 64.5553 335.9300 0073227 228.8529 130.6241 14.75586564907961 CO-55 1 27844U 03031E 19310.71225181 .00000056 00000-0 44918-4 0 9994 2 27844 98.6850 316.8222 0009597 349.3739 10.7235 14.22203614848334 CO-57 1 27848U 03031J 19311.02615507 .00000047 00000-0 41093-4 0 9999 2 27848 98.6924 317.6594 0009692 0.5433 359.5753 14.21795531848224 RS-22 1 27939U 03042A 19311.73382864 .00000115 00000-0 29214-4 0 9994 2 27939 98.0606 84.9545 0012396 344.2490 15.8333 14.66815443861362 NOAA-18 1 28654U 05018A 19311.66688164 .00000060 00000-0 57258-4 0 9996 2 28654 99.0788 0.6444 0015013 136.3065 223.9297 14.12464803745564 CO-58 1 28895U 05043F 19311.63211576 .00000116 00000-0 31097-4 0 9992 2 28895 97.9797 89.6744 0015515 262.9433 97.0005 14.63707751748243 Falconsat-3 1 30776U 07006E 19311.27852285 .00002819 00000-0 78019-4 0 9999 2 30776 35.4346 266.7237 0003327 298.1718 61.8673 15.36745109702476 CO-65 1 32785U 08021C 19311.60950670 .00000202 00000-0 27376-4 0 9997 2 32785 97.5576 304.6896 0013824 146.8651 213.3435 14.88369270624798 AAUSAT2 1 32788U 08021F 19311.49798501 .00000548 00000-0 55185-4 0 9992 2 32788 97.4943 320.9436 0013268 85.4060 274.8676 14.94845398626106 DO-64 1 32789U 08021G 19310.44288468 .00000761 00000-0 54446-4 0 9999 2 32789 97.4490 355.7604 0012217 11.5549 348.5958 15.07232135628166 CO-66 1 32791U 08021J 19311.52245802 .00000216 00000-0 27168-4 0 9993 2 32791 97.5323 310.7007 0014647 122.0448 238.2195 14.90904098625247 RS-30 1 32953U 08025A 19311.69859141 .00000020 00000-0 75656-4 0 9990 2 32953 82.5055 56.4414 0019787 177.0585 183.0618 12.43092046519955 PRISM 1 33493U 09002B 19311.52674959 .00000423 00000-0 42482-4 0 9998 2 33493 98.1243 237.8732 0016179 74.3707 285.9297 14.96789532586369 NOAA-19 1 33591U 09005A 19311.58551051 .00000015 00000-0 33726-4 0 9991 2 33591 99.1901 306.2102 0013747 344.7458 15.3296 14.12382404553933 TISAT-1 1 36799U 10035E 19310.73401239 .00000386 00000-0 44936-4 0 9993 2 36799 98.1727 107.7326 0011922 349.4500 10.6465 14.91195520505780 JUGNU 1 37839U 11058B 19310.79217073 .00000295 00000-0 15746-4 0 9998 2 37839 019.9599 199.1207 0018993 082.9843 328.4116 14.12663514417120 SRMSAT 1 37841U 11058D 19310.21025444 .00000310 00000-0 25083-4 0 9990 2 37841 19.9719 262.3344 0011646 300.5857 187.9315 14.10642502416551 AO-71 1 37854U 11061E 19310.62280508 .00001829 00000-0 99946-4 0 9992 2 37854 101.7079 281.3346 0160053 7.1666 353.1782 15.06735467438213 HRBE 1 37855U 11061F 19310.62169694 .00001829 00000-0 98243-4 0 9994 2 37855 101.7202 278.5981 0172801 18.9686 341.7858 15.05738481437989 ALMASAT-1 1 38078U 12006B 19311.25315097 .00070394 55831-5 29978-3 0 9990 2 38078 69.4195 218.6214 0122096 39.3884 89.0538 15.74655608419678 HORYU-2 1 38340U 12025D 19311.08075210 .00000170 00000-0 32806-4 0 9997 2 38340 98.3140 353.8024 0012153 39.1091 321.0993 14.75770339402015 RS-40 1 38735U 12041C 19311.49872662 .00000002 00000-0 -56120-4 0 9994 2 38735 82.4724 139.6897 0016322 288.4158 71.5155 12.42579473330169 BEESAT-3 1 39135U 13015F 19311.42642214 .00001018 00000-0 59317-4 0 9990 2 39135 64.8668 301.4604 0039229 285.7894 73.8908 15.17710137361757 BEESAT-2 1 39136U 13015G 19311.38571268 .00001037 00000-0 61563-4 0 9993 2 39136 64.8679 305.8277 0030017 290.6233 69.1674 15.17124846361666 ZACUBE-1 1 39417U 13066B 19311.50713433 .00000196 00000-0 31140-4 0 9990 2 39417 97.5623 317.0370 0057493 289.5383 69.9627 14.81173829322038 TRITON-1 1 39427U 13066M 19311.58433921 .00000212 00000-0 41370-4 0 9995 2 39427 97.6950 280.3308 0115144 71.4163 289.9508 14.67901228319155 GOMX-1 1 39430U 13066Q 19311.69623539 .00000139 00000-0 33953-4 0 9993 2 39430 97.7631 259.0146 0151236 166.0235 194.5231 14.59304608317312 LO-74 1 39440U 13066AA 19311.51596610 .00000245 00000-0 41034-4 0 9991 2 39440 97.6118 301.6470 0079855 345.3063 14.5826 14.75911819320897 AO-73 1 39444U 13066AE 19311.49643895 .00000247 00000-0 36839-4 0 9999 2 39444 97.5590 319.1036 0056564 282.6309 76.8584 14.82004767320934 SPROUT 1 39770U 14029E 19311.50911926 .00000535 00000-0 65093-4 0 9990 2 39770 97.8898 53.9363 0008814 347.8564 12.2430 14.87490604295915 DUCHIFAT-1 1 40021U 14033M 19311.37949950 .00000296 00000-0 35977-4 0 9991 2 40021 97.9274 236.4561 0011822 307.8276 52.1871 14.90728327292652 NANOSATCBR1 1 40024U 14033Q 19310.74278364 .00000388 00000-0 46273-4 0 9991 2 40024 97.9151 232.8677 0011261 314.4467 45.5828 14.89926610292448 EO-79 1 40025U 14033R 19310.75640705 .00000225 00000-0 29945-4 0 9992 2 40025 097.9058 230.2006 0011562 321.0505 038.9878 14.89014130291809 DTUSAT-2 1 40030U 14033W 19311.32906806 .00000271 00000-0 35129-4 0 9991 2 40030 97.8963 228.6862 0010933 314.9892 45.0437 14.88600526292328 EO-80 1 40032U 14033Y 19311.54164810 .00000243 00000-0 32155-4 0 9993 2 40032 97.8970 228.8993 0010874 314.7635 45.2696 14.88545702292347 ANTELSAT 1 40034U 14033AA 19311.57057097 .00000213 00000-0 38903-4 0 9990 2 40034 97.7391 172.5703 0058811 359.9935 0.1264 14.74158936289572 VELOX-1 1 40057U 14034E 19311.60448727 .00000327 00000-0 53173-4 0 9996 2 40057 98.2521 77.9010 0011832 135.2838 224.9329 14.77741286288729 DAURIA DX 1 1 40071U 14037C 19311.67886699 .00000078 00000-0 17563-4 0 9992 2 40071 98.4431 112.9691 0009324 125.6677 234.5403 14.81305505288274 UKUBE-1 1 40074U 14037F 19311.68855267 .00000293 00000-0 42278-4 0 9993 2 40074 98.4497 121.8421 0005598 109.8003 250.3798 14.84128769288715 HODOYOSHI-1 1 40299U 14070B 19311.72241986 .00000499 00000-0 23813-4 0 9993 2 40299 97.3394 28.4629 0011126 261.9186 198.3905 15.23504851277898 CHUBUSAT-1 1 40300U 14070C 19311.66754856 .00000512 00000-0 25201-4 0 9993 2 40300 97.3144 22.1737 0018555 278.5976 234.7624 15.22237581277614 QSAT-EOS 1 40301U 14070D 19311.40846301 .00001330 00000-0 53717-4 0 9995 2 40301 97.3160 25.7482 0023859 256.9426 233.8514 15.26283250277900 FIREBIRD FU3 1 40377U 15003B 19311.64339576 .00002354 00000-0 95162-4 0 9999 2 40377 99.1197 321.0563 0125448 338.0081 21.5792 15.19254201263474 FIREBIRD FU4 1 40378U 15003C 19311.49803409 .00002526 00000-0 10168-3 0 9997 2 40378 99.1200 320.9656 0125656 338.3703 21.2245 15.19266690263459 GRIFEX 1 40379U 15003D 19311.53960717 .00001590 00000-0 70978-4 0 9995 2 40379 99.1226 314.2127 0134444 359.0651 1.0305 15.15813946263073 NO-84 1 40654U 15025D 19309.43798813 .00013012 00000 0 17327-3 0 7668 2 40654 54.9896 254.3443 0127956 327.2539 32.0657 15.49451819134095 NO-83 1 40655U 15025E 19308.84593714 .01177273 11630-4 49551-3 0 9715 2 40655 54.9504 101.1838 0008870 21.8665 339.4822 16.22237122135853 DEORBITSAIL 1 40719U 15032E 19311.33405710 .00000359 00000-0 58237-4 0 9996 2 40719 97.8906 200.1495 0015511 205.1873 154.8582 14.76833231233168 NUDT-PHONESAT 1 40900U 15049B 19311.30391803 .00001779 00000-0 77957-4 0 9997 2 40900 97.4369 319.2820 0014129 52.5313 68.1312 15.23237824229218 XW-2A 1 40903U 15049E 19311.69717446 .00001652 00000-0 40315-4 0 9995 2 40903 97.3215 355.1646 0013374 359.4968 94.8006 15.42286603232132 XW-2C 1 40906U 15049H 19311.73934491 .00000679 00000-0 38898-4 0 9995 2 40906 97.4732 311.5095 0016444 69.3146 40.7572 15.15812911228512 XW-2D 1 40907U 15049J 19311.69943891 .00000349 00000-0 21575-4 0 9993 2 40907 97.4702 311.1524 0015748 66.3768 46.4959 15.16010461228520 LILACSAT-2 1 40908U 15049K 19311.45463469 .00000164 00000-0 12662-4 0 9998 2 40908 97.4843 309.5723 0017523 74.2208 81.4934 15.13883573228250 XW-2E 1 40909U 15049L 19311.45706716 .00000820 00000-0 43562-4 0 9996 2 40909 97.4632 313.9920 0015119 62.0066 99.5984 15.18003163228698 XW-2F 1 40910U 15049M 19311.72198012 .00000876 00000-0 46933-4 0 9998 2 40910 97.4663 313.3951 0016295 59.2591 50.6738 15.17516249228552 XW-2B 1 40911U 15049N 19311.73823522 .00000778 00000-0 43923-4 0 9998 2 40911 97.4729 311.8642 0015637 67.7488 42.5002 15.15942524228421 DCBB 1 40912U 15049P 19311.47846618 .00001115 00000-0 55068-4 0 9990 2 40912 97.4510 317.0198 0016113 42.4944 112.2705 15.19856647228846 TW-1C 1 40926U 15051B 19311.68770515 .00012349 00000-0 16188-3 0 9993 2 40926 97.1189 357.7956 0006992 187.8706 269.7076 15.58678314232252 TW-1A 1 40928U 15051D 19311.69436781 .00002335 00000-0 57644-4 0 9997 2 40928 97.1338 339.8172 0008996 279.8174 176.2489 15.41478950231040 IO-86 1 40931U 15052B 19308.14990593 .00000506 00000-0 -18695-4 0 9996 2 40931 5.9899 149.2330 0013523 313.9745 46.0045 14.76617760221769 LQSat 1 40958U 15057A 19311.18905441 .00000014 00000-0 98203-5 0 9993 2 40958 97.8843 16.4528 0019040 143.9117 216.3380 14.73095131219631 AO-85 1 40967U 15058D 19310.38819539 .00000244 00000 0 45836-4 0 8599 2 40967 64.7746 91.1394 0183179 156.3580 204.6081 14.76019686128501 ATHENOXAT-1 1 41168U 15077C 19311.18012735 .00001889 00000-0 64228-4 0 9994 2 41168 14.9879 258.9932 0011460 260.8119 99.0905 15.13895062215456 ChubuSat-2 1 41338U 16012B 19310.48377605 .00000319 00000-0 18141-4 0 9995 2 41338 31.0040 329.9897 0013754 57.8168 302.3800 15.00204627204077 ChubuSat-3 1 41339U 16012C 19311.43487388 .00000302 00000-0 16698-4 0 9999 2 41339 31.0116 321.8550 0013502 73.9280 286.2842 15.00376473204215 Horyu-4 1 41340U 16012D 19311.38815435 .00000459 00000-0 28121-4 0 9990 2 41340 31.0055 312.1821 0013969 95.1335 265.0895 15.01352130204327 OUFTI-1 1 41458U 16025C 19310.71579579 .00001107 00000-0 60364-4 0 9992 2 41458 98.1004 44.7371 0164307 242.5732 115.8701 15.06149726193791 e-st@r-II 1 41459U 16025D 19311.69706653 .00000483 00000-0 29214-4 0 9991 2 41459 98.0972 45.3437 0165504 240.7711 117.6876 15.05760921193914 AAUSAT4 1 41460U 16025E 19311.68968863 .00001818 00000-0 94357-4 0 9998 2 41460 98.0944 46.9508 0155620 232.0595 126.6516 15.07780468194061 LO-87 1 41557U 16033B 19311.62324356 .00001193 00000-0 46983-4 0 9999 2 41557 97.4141 38.2877 0014541 150.6861 209.5197 15.27509063191751 NuSat2 1 41558U 16033C 19311.61139760 .00001339 00000-0 49494-4 0 9994 2 41558 97.4175 39.7888 0013586 149.8049 210.3977 15.29431218191825 Lapan A3 1 41603U 16040E 19311.73613236 .00000187 00000-0 11882-4 0 9991 2 41603 97.3433 6.8070 0011708 261.7516 196.9512 15.19762325187315 Swayam 1 41607U 16040J 19310.62187244 .00001334 00000-0 58549-4 0 9993 2 41607 097.3499 009.9416 0011728 253.2788 106.7162 15.23626202187338 Pratham 1 41783U 16059A 19311.58373015 .00000042 00000-0 17363-4 0 9991 2 41783 98.0508 7.9052 0032339 298.7786 61.0169 14.63018703166295 AlSat 1N 1 41789U 16059G 19311.72451645 .00000073 00000-0 22954-4 0 9995 2 41789 98.0530 10.3505 0026905 286.9513 72.8735 14.64273763166431 ScatSat 1 41790U 16059H 19311.71578252 .00000011 00000-0 13702-4 0 9993 2 41790 98.1931 353.2571 0004274 243.5067 116.5685 14.50893088164924 TY-1 1 41844U 16066D 19311.68945142 .00000749 00000-0 33311-4 0 9999 2 41844 97.4064 317.4048 0016484 52.8859 58.3171 15.24478604166324 Pegasus-1 1 41846U 16066F 19310.54118984 .00000229 00000-0 44947-4 0 9991 2 41846 98.6960 352.8793 0367509 179.4567 180.7094 14.37643636156799 CAS-2T 1 41847U 16066G 19311.13710649 .00000037 00000-0 15854-4 0 9996 2 41847 98.6893 354.0050 0366091 173.8868 186.6974 14.38017195157320 EO-88 1 42017U 17008BX 19310.64408871 .00001377 00000-0 56556-4 0 9991 2 42017 97.3888 16.1958 0007240 44.3694 315.8124 15.25866799151416 nSIGHT1 1 42726U 98067MF 19311.22155749 .00044099 00000-0 25374-3 0 9991 2 42726 51.6325 301.8052 0005294 28.7951 331.3341 15.78244560140113 CAS-4B 1 42759U 17034B 19311.73144991 .00000097 00000-0 19437-4 0 9999 2 42759 43.0170 170.6143 0010598 61.6145 53.2849 15.09675749132305 CAS-4A 1 42761U 17034D 19311.48020287 .00000251 00000-0 28761-4 0 9997 2 42761 43.0169 171.4383 0011111 60.8934 7.1576 15.09754840132260 UCLSat 1 42765U 17036A 19311.13846964 .00001154 00000-0 51915-4 0 9993 2 42765 97.3345 6.0110 0013124 92.5749 267.6990 15.23014807131995 NIUSat 1 42766U 17036B 19310.60205596 .00000890 00000-0 42656-4 0 9993 2 42766 097.3341 003.5551 0017311 087.0359 273.2858 15.21324858131658 LituanicaSAT 2 1 42768U 17036D 19311.63100892 .00001751 00000-0 76649-4 0 9998 2 42768 97.3387 6.1918 0016598 82.5687 277.7435 15.23242560131916 Aalto 1 1 42775U 17036L 19311.39795046 .00000712 00000-0 34574-4 0 9997 2 42775 97.3325 4.6752 0015645 84.2564 276.0455 15.21517425131759 URSA MAIOR 1 42776U 17036M 19311.27999447 .00000801 00000-0 38356-4 0 9997 2 42776 97.3336 4.7561 0015462 84.5985 275.7014 15.21666732131740 Max Valier Sat 1 42778U 17036P 19311.39675946 .00000910 00000-0 42496-4 0 9998 2 42778 97.3380 5.8241 0014031 87.9380 272.3463 15.22232845131796 Pegasus 1 42784U 17036V 19311.38376525 .00001074 00000-0 48876-4 0 9995 2 42784 97.3349 6.0239 0013712 92.5350 267.7457 15.22747354131823 NUDATSat 1 42787U 17036Y 19311.68148243 .00001964 00000-0 84240-4 0 9998 2 42787 97.3373 7.2425 0013071 87.3795 272.8923 15.23839746131762 SUCHAI 1 1 42788U 17036Z 19310.62789807 .00001251 00000-0 55714-4 0 9992 2 42788 97.3356 5.6853 0013264 94.0100 266.2653 15.23206650131804 SKCUBE 1 42789U 17036AA 19310.58794918 .00001150 00000-0 51631-4 0 9999 2 42789 097.3351 005.5593 0013146 094.2527 266.0213 15.23086803131710 VZLUSAT 1 1 42790U 17036AB 19310.15848851 .00001560 00000-0 67534-4 0 9994 2 42790 097.3370 005.7512 0012655 094.4688 265.7995 15.23820339131689 VENTA 1 1 42791U 17036AC 19310.29834141 .00001121 00000-0 50382-4 0 9993 2 42791 097.3349 005.3266 0012777 095.5057 264.7637 15.23091470131661 Robusta 1B 1 42792U 17036AD 19310.63430422 .00001153 00000-0 51493-4 0 9995 2 42792 97.3352 5.7895 0012723 94.5997 265.6694 15.23265237131747 D-SAT 1 42794U 17036AF 19311.60088863 .00000276 00000-0 29203-4 0 9992 2 42794 97.5234 349.9364 0127121 29.2187 331.6065 14.91162748129480 TechnoSat 1 42829U 17042E 19311.48448626 .00000115 00000-0 16989-4 0 9990 2 42829 97.5448 198.3192 0013089 312.6016 47.4098 14.91019316126069 QIKCOM-1 1 42983U 98067NF 19311.60147919 .00003581 00000-0 50117-4 0 9993 2 42983 51.6401 347.3637 0003567 306.4413 53.6251 15.59770189115483 AO-91 1 43017U 17073E 19311.30492195 .00000767 00000-0 64472-4 0 9998 2 43017 97.7221 227.1193 0259055 57.4204 305.1738 14.78680335106186 EcAMSat 1 43019U 98067NG 19311.51873000 .00006722 00000-0 78801-4 0 9991 2 43019 51.6414 340.1181 0003743 290.3217 69.7375 15.62853889197895 PICSAT 1 43132U 18004X 19311.62047185 .00001243 00000-0 54452-4 0 9998 2 43132 97.4747 19.0709 0011210 113.4585 246.7832 15.23870472101116 AO-92 1 43137U 18004AC 19311.23067779 .00000992 00000-0 44263-4 0 9990 2 43137 97.4735 18.6192 0010770 116.0635 244.1712 15.23695500101042 TianYi 2 1 43155U 18008A 19311.70853331 .00000359 00000-0 25046-4 0 9998 2 43155 97.4739 21.1782 0017289 190.5467 268.6702 15.11314634 99276 Zhou Enlai 1 43156U 18008B 19311.73537758 .00001165 00000-0 73734-4 0 9997 2 43156 97.4788 21.0786 0014547 187.7816 270.3107 15.10834019 99243 TianYi 6 1 43158U 18008D 19311.69915245 .00000606 00000-0 40641-4 0 9995 2 43158 97.4729 20.3682 0013642 186.0919 337.5152 15.10399680 99198 S-Net G 1 43186U 18014G 19311.56186743 .00000760 00000-0 71574-4 0 9992 2 43186 97.7009 217.8766 0009435 247.6655 112.3567 14.96704585 96356 S-Net H 1 43187U 18014H 19311.56168399 .00000759 00000-0 71527-4 0 9996 2 43187 97.7007 217.8611 0009446 247.5974 112.4247 14.96704598 96359 S-Net J 1 43188U 18014J 19311.49465660 .00000764 00000-0 71970-4 0 9998 2 43188 97.7010 217.8167 0009450 247.9905 112.0313 14.96704155 96341 S-Net K 1 43189U 18014K 19311.42815336 .00000773 00000-0 72687-4 0 9997 2 43189 97.7007 217.7264 0009429 248.2284 111.7935 14.96703939 94887 FMN 1 1 43192U 18015A 19311.72406872 .00002013 00000-0 83950-4 0 9990 2 43192 97.4172 77.8674 0016966 149.1987 318.3273 15.24736181 97952 Shaonian Xing 1 43199U 18015H 19311.75726510 .00001427 00000-0 59635-4 0 9995 2 43199 97.3959 76.7200 0017616 159.6736 306.5263 15.25128035 98015 1KUNS-PF 1 43466U 98067NP 19311.53390625 .00030608 00000-0 23020-3 0 9998 2 43466 51.6359 331.8005 0002493 26.0865 334.0259 15.72272120 85186 UBAKUSAT 1 43467U 98067NQ 19311.49805469 .00015326 00000-0 15077-3 0 9994 2 43467 51.6369 340.5951 0000989 295.1441 64.9452 15.66213094 85072 Irazu 1 43468U 98067NR 19311.28391882 .00060679 00000-0 34110-3 0 9991 2 43468 51.6363 325.5528 0003375 39.8554 320.2695 15.78639273185230 EnduroSat One 1 43551U 98067NZ 19310.58401212 .00019272 00000-0 18086-3 0 9992 2 43551 51.6370 347.2402 0005616 335.6442 24.4288 15.67186547 75133 EQUISat 1 43552U 98067PA 19311.34430499 .00016440 00000-0 16861-3 0 9990 2 43552 51.6388 346.3655 0005828 332.6536 27.4152 15.65086589 75179 UiTMSat 1 1 43589U 98067PD 19311.32135766 .00018847 00000-0 18811-3 0 9997 2 43589 51.6359 346.8697 0005489 342.6252 17.4555 15.65661785 70906 Maya 1 1 43590U 98067PE 19311.37876301 .00019715 00000-0 19637-3 0 9993 2 43590 51.6363 346.5100 0005522 342.6255 17.4551 15.65678022 70841 Bhutan 1 1 43591U 98067PF 19310.53431714 .00018147 00000-0 18099-3 0 9995 2 43591 51.6371 350.6565 0005708 339.7847 20.2922 15.65708903 70714 SiriusSat 1 1 43595U 98067PG 19310.53872020 .00016035 00000-0 16760-3 0 9995 2 43595 51.6363 352.9021 0002889 308.9632 51.1106 15.64638118 69868 SiriusSat 2 1 43596U 98067PH 19311.60588052 .00015962 00000-0 16772-3 0 9995 2 43596 51.6373 348.0804 0003321 310.4036 49.6669 15.64506833 70027 Tanusha-3 1 43597U 98067PJ 19311.10366893 .00025196 00000-0 23415-3 0 9990 2 43597 51.6351 346.8833 0003460 333.4561 26.6257 15.67251653 69996 SurfSat 1 43614U 18070B 19311.06874783 .00002805 00000-0 74593-4 0 9999 2 43614 93.0369 62.0929 0018129 116.5085 243.8030 15.38141740 64133 CP-7 DAVE 1 43615U 18070C 19310.75747421 .00002789 00000-0 74396-4 0 9995 2 43615 93.0373 61.9623 0018255 116.9655 243.3465 15.38039504 64080 ELFIN-B 1 43616U 18070D 19310.76384157 .00004177 00000-0 10813-3 0 9996 2 43616 93.0332 61.8713 0018839 120.0606 240.2520 15.38921862 64103 ELFIN-A 1 43617U 18070E 19311.07745996 .00004487 00000-0 11586-3 0 9996 2 43617 93.0387 62.3273 0018097 116.0187 244.2934 15.39014784 64151 STARS-Me Mother 1 43640U 98067PQ 19311.56052241 .00009372 00000-0 11658-3 0 9992 2 43640 51.6380 354.5240 0004423 278.5475 81.5017 15.60728582 61863 CubeBel 1 1 43666U 18083E 19311.76891881 .00000694 00000-0 37616-4 0 9994 2 43666 97.5106 335.2261 0016512 58.3246 29.8375 15.17812239 56835 Changshagaoxin 1 43669U 18083H 19311.61338774 .00000619 00000-0 34749-4 0 9999 2 43669 97.4975 333.9462 0012189 53.6855 306.5502 15.16961386 56743 Ten-Koh 1 43677U 18084G 19311.10113218 .00000065 00000-0 12550-4 0 9998 2 43677 97.8648 64.0210 0016341 170.5352 189.6177 14.90212024 55679 PO-101 1 43678U 18084H 19311.69153538 .00000445 00000-0 49996-4 0 9998 2 43678 97.8647 65.4394 0009661 185.2469 174.8651 14.91586208 55814 IRVINE 01 1 43693U 18088D 19311.07434718 .00002275 00000-0 97700-4 0 9992 2 43693 85.0383 224.7190 0019954 38.6760 321.5906 15.21900081 54863 QO-100 1 43700U 18090A 19311.17480185 .00000144 00000-0 00000 0 0 9999 2 43700 0.0155 268.7072 0001497 332.6491 253.4896 1.00273581 3713 Reaktor Hello World 1 43743U 18096AA 19311.73207134 .00001065 00000-0 42997-4 0 9994 2 43743 97.4465 21.4918 0017712 189.7338 269.2308 15.26891738 52401 MinXSS-2 1 43758U 18099A 19311.13663529 .00000524 00000-0 52519-4 0 9991 2 43758 97.7325 21.4274 0015053 210.6124 149.4220 14.95498077 50575 AO-95 1 43770U 18099N 19310.67852854 .00000691 00000-0 68646-4 0 9997 2 43770 97.7328 20.6527 0013771 218.8325 141.1907 14.94844293 50487 RANGE-B 1 43772U 18099Q 19311.19186515 .00000236 00000-0 26870-4 0 9999 2 43772 97.7384 21.4346 0013744 204.2627 155.7948 14.94979453 50554 RANGE-A 1 43773U 18099R 19311.67277976 .00000520 00000-0 52937-4 0 9994 2 43773 97.7272 21.4331 0013121 201.8607 158.2055 14.94859757 50624 MOVE-II 1 43780U 18099Y 19311.15185690 .00000921 00000-0 88985-4 0 9993 2 43780 97.7322 21.2068 0012875 214.5210 145.5176 14.95180289 50541 SNUSat 2 1 43782U 18099AA 19311.14910241 .00000686 00000-0 67696-4 0 9996 2 43782 97.7324 21.2473 0012277 202.9322 157.1352 14.95122735 50554 SnugLite 1 43784U 18099AC 19311.19814312 .00000318 00000-0 34155-4 0 9991 2 43784 97.7286 21.1867 0014485 212.4390 147.5942 14.95208465 50578 ITASat 1 1 43786U 18099AE 19311.32999952 .00000215 00000-0 24772-4 0 9992 2 43786 97.7339 21.5529 0014599 211.0180 149.0180 14.95202827 50595 EAGLET 1 1 43790U 18099AJ 19311.17769032 -.00000183 00000-0 -11295-4 0 9996 2 43790 97.7333 21.5582 0012636 216.2001 143.8365 14.95580551 50277 ESEO 1 43792U 18099AL 19310.64170778 -.00000305 00000-0 -22277-4 0 9990 2 43792 097.7312 020.9481 0012389 214.8725 145.1686 14.95542368050252 CSIM 1 43793U 18099AM 19311.34295714 .00000920 00000-0 87464-4 0 9997 2 43793 97.7282 21.5378 0012660 208.8028 151.2496 14.95819822 50330 Astrocast 0.1 1 43798U 18099AS 19311.19386516 -.00000037 00000-0 19098-5 0 9995 2 43798 97.7317 21.6337 0012174 195.1213 164.9646 14.95773809 50572 JO-97 1 43803U 18099AX 19311.63632568 .00000106 00000-0 14833-4 0 9999 2 43803 97.7302 21.7336 0014428 210.4436 149.5948 14.95353768 50634 Suomi 100 1 43804U 18099AY 19311.16760207 .00000158 00000-0 19552-4 0 9990 2 43804 97.7301 21.2670 0014479 212.1414 147.8925 14.95349510 50570 Al Farabi 2 1 43805U 18099AZ 19311.62521322 .00000655 00000-0 64425-4 0 9996 2 43805 97.7305 21.7513 0014570 210.3409 149.6970 14.95427593 50648 PWSat 2 1 43814U 18099BJ 19310.93276290 .00018588 00000-0 13659-2 0 9995 2 43814 097.7779 023.9829 0011090 198.8499 161.2301 15.03431461050041 CHOMPTT 1 43855U 18104G 19311.53631919 .00001002 00000-0 41191-4 0 9994 2 43855 85.0364 322.6576 0018192 145.6895 214.5527 15.22584722 49606 ISAT 1 43879U 18111D 19311.65641875 -.00000177 00000-0 -10626-4 0 9996 2 43879 97.7091 217.5347 0011827 270.9926 88.9940 14.96076337 45169 UWE-4 1 43880U 18111E 19311.27088737 .00000217 00000-0 24341-4 0 9990 2 43880 97.7097 217.3115 0011019 272.6345 87.3615 14.96314048 45116 Sparrow 1 43881U 18111F 19311.19427594 -.00000134 00000-0 -66714-5 0 9991 2 43881 97.7105 217.2753 0011146 272.1622 87.8323 14.96363467 45107 Lume 1 1 43908U 18111AJ 19311.51732034 .00001026 00000-0 44277-4 0 9993 2 43908 97.2785 212.8221 0020589 207.0576 152.9590 15.24585538 48057 FO-98 1 43933U 19003B 19311.72195738 .00000610 00000-0 29798-4 0 9998 2 43933 97.2641 4.5810 0016518 309.6135 145.4837 15.21802821 44650 FO-99 1 43937U 19003F 19311.74606440 .00001036 00000-0 45595-4 0 9997 2 43937 97.2600 5.2549 0022715 292.9397 161.9269 15.23857423 44715 Delphini 1 1 44030U 98067PW 19311.38557278 .00012773 00000-0 16487-3 0 9990 2 44030 51.6381 0.8663 0004689 328.5784 31.4928 15.59357668 43632 MYSat 1 1 44045U 18092F 19311.63031246 .00002402 00000-0 79401-4 0 9990 2 44045 51.6469 43.2716 0011107 234.3172 125.6766 15.35539897 41042 AstroCast 0.2 1 44083U 19018F 19311.60568029 .00000475 00000-0 24209-4 0 9996 2 44083 97.4525 10.3479 0012749 227.5253 132.4906 15.21508047 33493 AISTechSat 3 1 44103U 19018AB 19311.70509402 .00000639 00000-0 30347-4 0 9992 2 44103 97.4402 10.4939 0011943 246.2311 212.4039 15.22816876 33534 AISat 1 1 44104U 19018AC 19311.34313852 .00000775 00000-0 27668-4 0 9998 2 44104 97.4938 14.2898 0057137 285.0766 74.4157 15.30675394 33674 Raavana-1 1 44329U 98067QE 19311.56133154 .00008050 00000-0 12993-3 0 9995 2 44329 51.6418 8.0703 0006283 253.6482 106.3818 15.53856420 22309 Uguisu 1 44330U 98067QF 19311.37207375 .00008570 00000-0 13808-3 0 9996 2 44330 51.6417 9.0554 0006280 251.0453 108.9857 15.53808823 22251 NepaliSat-1 1 44331U 98067QG 19311.17226726 .00008507 00000-0 13675-3 0 9998 2 44331 51.6418 9.9722 0006364 252.9359 107.0935 15.53885025 22231 Prox-1 1 44339U 19036A 19311.65584444 .00000867 00000-0 15698-3 0 9990 2 44339 23.9998 73.4664 0010900 240.4415 119.5073 14.52724934 19697 OBJECT H 1 44346U 19036H 19311.47373713 .00008742 00000-0 13541-3 0 9998 2 44346 28.5236 41.8536 0383507 95.6801 268.7636 14.98167869 20279 OBJECT J 1 44347U 19036J 19311.44232554 .00020724 00000-0 31353-3 0 9998 2 44347 28.5296 38.7450 0362258 100.6003 263.5599 15.03412980 20306 OBJECT K 1 44348U 19036K 19311.43805443 .00007009 00000-0 10605-3 0 9999 2 44348 28.5181 41.5081 0383849 95.9820 268.4640 14.98373610 20270 Armadillo 1 44352U 19036P 19311.46061807 .00009749 00000-0 15076-3 0 9995 2 44352 28.5316 40.8660 0378514 96.8295 267.5505 14.99295304 20228 NO-104 1 44354U 19036R 19310.57216541 .00007919 00000-0 11863-3 0 9992 2 44354 28.5308 46.2803 0381704 87.5497 276.8726 14.99148911 20135 NO-103 1 44355U 19036S 19310.57451938 .00013849 00000-0 20872-3 0 9993 2 44355 28.5311 45.3346 0375002 89.1193 275.2334 15.00776599 20148 Oculus-ASR 1 44356U 19036T 19311.45167681 .00030736 00000-0 42411-3 0 9998 2 44356 28.5248 35.7878 0358242 104.6309 259.4285 15.06271446 20326 CP9 1 44360U 19036X 19310.60547816 .00019303 00000-0 25877-3 0 9995 2 44360 028.5176 042.4145 0373568 094.2470 270.0892 15.03657581020063 Move-IIb 1 44398U 19038N 19311.14184656 .00001012 00000-0 62621-4 0 9994 2 44398 97.5061 270.7319 0025482 173.1127 187.0458 15.11822990 18831 SONATE 1 44400U 19038Q 19311.14215763 .00000294 00000-0 20969-4 0 9992 2 44400 97.5079 270.7458 0025496 171.3431 188.8245 15.11731370 18835 BeeSat 9 1 44412U 19038AC 19311.39449929 .00000721 00000-0 45637-4 0 9999 2 44412 97.5074 271.0170 0022915 175.7526 184.3903 15.11923583 18565 JAISAT-1 1 44419U 19038F 19311.61840571 .00000695 00000-0 43552-4 0 9993 2 44419 97.5075 271.3332 0021785 174.5810 185.5661 15.12412332 18912 LightSail-2 1 44420U 19036AC 19310.74151528 .00005653 00000-0 12766-2 0 9993 2 44420 24.0060 78.9756 0015889 231.8915 128.0179 14.53571537 17704 Taurus 1 1 44530U 19059C 19311.68315121 .00000224 00000-0 76783-4 0 9995 2 44530 98.5831 25.5496 0015764 106.9705 253.3215 14.45261488 8163 /EX
